Wind_Speed
15 15 15 16 16 16 17 19 21 23 25 26 25 25 26 27 26 25 23 22 21 20 20 20 19 19 18 18 16 13 11 9 8 8 8 9 10 11 13 14 15 17 18 18 18 19 19 20 19 19 19 19 19 19 18 18 18 18 19 20 21 22 22 24 24 25 24 24 25 26 27 27 27 26 25 23 22 23 24 24 24 25 27 29 30
16 16 17 16 15 16 17 18 19 22 23 25 26 27 28 28 28 27 24 23 22 21 22 21 20 19 19 19 17 15 13 11 9 8 8 9 9 11 12 13 14 16 18 19 19 19 19 20 20 20 19 20 20 20 19 19 19 19 19 20 22 23 24 24 25 26 25 25 24 25 27 28 28 28 26 24 23 23 24 25 25 26 27 29 30
18 18 17 16 16 16 16 16 17 19 20 22 25 27 29 29 30 28 25 24 23 22 23 22 21 20 20 20 18 16 14 13 11 9 9 9 10 11 12 13 13 15 17 19 19 20 20 20 20 20 20 20 20 20 20 20 20 20 21 21 22 22 23 23 24 25 25 25 25 26 27 29 30 29 27 25 24 24 26 27 27 28 28 29 30
19 19 18 17 16 15 14 14 15 15 17 19 22 25 28 29 29 28 26 25 24 23 23 23 21 20 20 20 19 17 16 15 13 11 10 10 10 11 12 13 13 14 16 18 19 20 21 21 20 20 20 20 20 20 20 20 20 21 21 22 21 21 21 21 22 23 24 26 27 28 28 30 32 31 27 27 26 26 27 29 29 30 30 30 30
20 19 18 17 15 14 13 13 13 13 14 16 18 21 24 26 27 27 26 25 25 24 24 23 22 21 21 21 21 19 18 16 14 12 11 10 10 11 12 12 13 15 17 18 20 21 22 22 21 20 20 20 20 20 20 20 20 21 21 21 21 21 20 20 21 22 23 25 29 31 30 31 32 32 29 29 30 30 30 30 31 32 32 32 32
20 19 18 17 14 13 13 13 12 12 12 13 15 18 20 23 24 25 25 25 25 25 24 24 23 21 22 23 22 21 19 17 16 14 12 11 11 11 12 12 13 15 17 20 22 23 24 24 23 21 20 20 20 21 21 20 20 20 21 22 22 22 22 21 21 22 23 26 29 32 33 33 33 33 32 32 33 34 34 32 32 34 34 33 33
20 19 18 17 15 14 14 13 13 13 13 13 15 16 18 20 21 23 24 24 24 24 25 25 24 23 24 24 23 22 20 18 17 15 14 13 12 12 12 13 14 16 18 21 23 25 26 26 26 24 22 20 20 20 21 21 20 21 22 23 23 23 24 24 24 25 25 26 29 32 34 35 36 36 36 36 35 36 36 34 33 35 35 33 33
19 18 18 17 16 15 16 15 14 14 14 15 16 16 17 18 19 21 23 23 23 23 25 26 25 25 25 25 24 22 20 19 18 17 16 15 14 13 13 13 14 16 19 21 23 25 27 29 29 27 23 21 20 20 20 21 21 22 24 24 25 26 27 27 28 28 28 28 30 32 34 36 38 38 39 38 37 37 38 35 32 32 33 32 31
19 19 19 18 17 17 18 18 17 16 16 16 16 17 17 18 19 20 21 21 22 23 24 26 26 26 25 25 24 23 21 19 19 19 18 17 16 15 14 14 14 17 19 21 23 25 27 29 29 26 21 20 20 21 21 21 22 23 25 26 27 28 29 30 30 31 31 30 31 34 35 37 39 40 39 39 38 38 39 38 36 35 34 32 33
19 20 19 18 18 20 21 20 20 19 19 18 18 18 18 18 19 20 21 21 21 23 24 26 25 25 25 25 24 23 21 20 20 21 20 19 18 17 15 14 15 17 19 20 22 23 25 27 27 25 21 20 21 22 22 22 24 25 26 28 29 30 31 32 33 33 33 33 33 36 37 38 39 40 40 40 39 39 40 41 40 38 35 35 35
20 19 18 18 21 23 23 23 22 21 21 21 21 22 21 20 19 20 21 22 22 23 24 25 25 25 25 26 26 24 22 20 21 23 22 21 21 19 17 16 15 17 19 20 20 21 22 24 25 25 25 25 23 22 23 24 26 27 28 29 30 31 32 33 33 34 35 34 35 37 39 37 38 40 41 40 39 39 41 41 38 37 40 40 38
20 19 17 19 23 24 25 25 24 23 23 23 24 24 24 23 22 21 21 22 23 24 24 25 26 26 26 27 27 25 22 22 23 24 23 23 22 21 20 18 17 18 21 20 19 21 20 21 25 28 29 31 28 24 25 27 28 30 31 31 31 32 33 34 34 35 36 35 35 38 39 38 40 42 42 41 39 37 39 40 39 41 44 43 39
22 20 20 21 24 25 26 27 26 25 25 25 26 27 27 25 24 24 22 22 23 24 25 27 28 28 27 27 28 26 24 23 24 25 24 24 25 25 23 21 19 21 23 22 22 24 22 23 29 32 33 35 34 30 30 31 31 32 33 33 33 34 34 34 35 36 37 36 37 39 39 40 42 43 42 39 36 34 36 39 41 43 45 44 44
26 24 23 23 24 25 27 27 27 27 27 28 29 29 28 27 26 26 25 25 24 24 25 28 29 29 28 27 29 28 26 26 26 26 26 26 27 29 28 24 22 23 26 28 29 29 28 29 33 35 36 37 36 36 38 38 36 35 34 34 35 34 34 35 36 37 37 37 38 40 40 41 42 43 41 38 36 36 38 40 42 45 47 48 49
29 28 27 26 25 25 26 27 27 28 29 30 30 30 30 29 28 28 27 27 26 24 25 27 29 30 29 28 30 29 28 28 28 27 27 28 30 33 31 25 23 26 30 32 31 29 30 32 35 37 38 39 40 41 43 43 41 38 35 34 34 34 34 36 38 38 38 39 40 40 41 41 42 42 42 40 40 41 42 44 47 49 50 51 55
31 30 29 28 26 25 25 26 27 28 29 30 31 30 31 31 31 30 29 28 28 26 26 27 28 29 29 29 30 30 30 30 29 29 29 30 34 36 32 26 25 27 31 31 29 28 30 32 35 37 39 41 42 44 45 46 44 40 35 34 33 33 35 38 39 39 39 39 41 42 43 43 43 43 44 43 43 45 47 49 50 51 52 54 56
30 30 30 30 29 26 25 26 28 29 30 31 31 31 32 33 34 34 33 31 29 29 28 27 27 28 29 30 31 31 32 31 31 31 31 32 36 36 32 27 26 27 29 30 30 30 31 33 35 37 40 42 43 44 45 45 41 36 33 33 33 34 37 38 39 39 39 40 42 43 43 44 44 45 45 44 45 46 49 50 51 51 52 52 51
31 31 31 31 31 30 30 32 32 32 33 34 34 34 34 35 37 38 37 34 32 31 30 29 29 29 28 29 31 33 34 33 33 34 34 35 37 36 32 29 27 26 29 32 32 33 33 34 35 38 41 42 44 44 44 42 37 33 32 33 34 36 38 38 39 39 39 41 43 44 44 45 46 46 46 45 45 47 48 49 49 49 49 48 47
32 33 33 34 35 35 35 36 36 36 36 37 37 38 38 39 41 41 41 39 36 35 34 32 31 30 29 29 32 35 36 36 36 36 36 37 37 36 34 31 28 28 31 33 34 34 36 35 35 39 42 43 44 44 43 39 35 34 34 35 36 37 38 39 39 39 40 41 43 44 45 46 47 47 46 46 46 46 47 47 46 46 45 44 43
33 35 37 39 39 38 38 38 37 38 39 39 40 41 41 41 43 44 44 42 40 38 37 36 34 33 32 32 33 36 38 39 38 38 38 39 38 37 34 32 31 31 33 34 35 36 37 36 36 40 44 44 44 44 41 37 36 36 36 37 38 38 39 39 39 40 40 42 43 44 45 46 46 46 45 45 46 46 45 44 43 42 40 39 38
37 39 41 41 40 40 41 41 40 41 42 43 43 43 42 42 45 46 44 42 43 43 41 40 39 37 36 35 35 37 40 41 40 40 40 40 40 37 34 32 33 35 35 35 37 38 39 38 38 41 44 45 45 45 41 37 37 38 38 38 38 38 39 39 39 40 41 42 43 44 45 45 45 45 45 45 45 44 42 40 38 37 35 35 36
38 40 41 41 41 42 43 43 42 42 44 46 47 45 42 43 47 48 44 41 42 45 45 44 43 41 40 39 37 38 41 42 42 42 43 43 41 38 35 34 36 37 37 37 39 41 41 39 39 42 45 46 46 45 42 38 38 39 39 38 38 38 38 39 39 40 40 41 43 44 44 45 45 45 45 45 43 41 38 36 34 33 33 34 36
40 42 43 43 43 44 44 44 43 43 45 47 47 46 45 46 48 49 48 48 47 47 49 49 47 45 44 42 40 40 43 44 43 44 46 45 43 40 38 37 38 39 39 39 41 42 42 40 40 43 46 47 46 44 42 40 40 40 39 39 38 38 38 39 39 39 40 41 42 43 44 44 44 45 44 42 40 37 34 32 32 32 34 35 37
44 45 45 45 44 44 45 46 46 46 47 48 48 48 49 51 51 49 49 49 48 47 50 53 52 49 47 46 44 43 45 46 46 48 48 47 45 42 41 40 41 41 41 42 44 45 44 43 43 44 48 49 47 44 42 40 40 40 40 39 38 37 38 38 38 39 40 41 42 42 43 43 44 42 40 38 36 34 32 31 32 33 36 38 39
49 49 48 48 47 46 46 47 48 49 50 50 51 50 50 51 52 50 48 48 49 48 50 54 56 54 49 47 47 47 47 49 50 51 51 50 47 45 44 44 44 44 43 44 47 47 47 47 45 46 50 51 46 42 42 41 40 41 40 38 37 37 38 38 38 39 40 41 41 42 42 42 41 39 37 35 33 31 30 31 33 35 37 39 40
50 50 50 49 48 48 48 49 51 52 53 53 53 52 52 53 55 54 54 55 55 52 50 52 57 58 54 51 51 50 50 52 54 54 54 53 51 49 47 48 48 48 46 46 48 49 48 48 46 47 52 52 45 41 42 41 40 41 40 38 37 37 37 37 38 39 40 40 40 41 41 40 38 35 34 33 31 30 30 31 34 37 38 39 39
48 48 49 49 49 50 51 51 53 54 56 56 56 55 56 57 58 59 60 60 58 56 54 53 53 55 55 53 53 53 53 54 55 56 56 56 54 52 51 52 53 51 49 48 49 49 49 48 47 49 53 52 45 42 42 41 41 41 39 38 38 37 37 38 38 39 39 39 39 39 38 36 34 33 32 32 30 30 30 33 36 38 38 39 39
47 48 49 50 51 52 53 53 54 55 56 57 57 57 57 57 57 58 59 60 59 59 59 56 53 53 54 55 56 57 57 57 57 57 57 58 57 55 56 58 58 54 51 50 50 50 50 50 50 52 55 50 44 42 41 40 40 40 38 37 37 37 37 37 38 39 38 38 37 37 35 33 32 32 31 30 30 30 31 34 36 37 38 38 38
49 49 50 50 51 52 53 54 55 55 56 58 59 59 59 59 58 58 58 59 61 62 63 61 57 55 56 58 59 61 61 61 60 59 60 61 59 58 60 63 61 56 53 52 51 51 53 53 53 54 55 49 42 40 41 40 40 39 37 37 37 36 36 37 37 37 36 35 34 33 31 31 31 30 30 29 29 30 32 35 36 37 37 37 37
50 51 50 50 51 52 53 53 55 56 57 59 60 62 63 63 63 62 61 61 61 63 65 65 63 63 62 62 63 65 65 64 63 63 64 64 64 64 64 62 59 56 54 53 53 53 54 56 56 55 52 44 39 39 39 39 40 38 36 36 36 35 35 36 36 35 34 32 31 29 29 29 29 29 29 28 29 31 33 34 35 36 35 36 36
51 50 49 49 49 50 52 54 55 56 58 60 62 65 66 67 66 67 66 65 64 64 65 66 68 69 68 67 68 71 71 71 70 70 70 69 70 69 63 55 52 54 55 54 54 54 55 58 59 55 47 40 38 38 39 39 39 37 36 36 35 34 35 35 35 33 31 29 28 27 27 28 28 28 28 28 29 31 32 33 34 34 34 35 35
51 50 49 49 49 49 52 54 55 56 58 60 63 66 68 69 70 70 70 70 70 69 68 68 69 70 70 70 71 72 73 72 71 71 71 73 73 69 58 49 48 52 54 54 53 54 57 60 59 53 44 39 37 37 38 39 38 36 35 35 34 33 34 34 32 30 28 27 26 26 26 27 27 27 27 27 29 30 31 32 32 33 33 34 35
50 50 49 49 49 51 52 53 54 56 57 59 62 66 67 68 69 70 71 74 76 76 75 74 72 71 72 73 72 72 73 71 67 64 66 72 74 68 56 50 50 50 51 52 53 55 58 60 55 47 41 38 37 37 38 38 37 35 35 35 33 33 34 33 31 28 27 26 25 25 25 26 27 26 26 27 28 29 30 30 31 31 32 33 34
47 48 48 48 49 51 52 53 55 56 57 59 62 64 65 67 69 72 73 74 76 79 80 79 78 76 76 76 74 72 73 73 68 61 61 67 72 68 58 52 51 49 48 50 52 55 58 57 49 42 39 38 36 36 38 37 35 34 34 33 32 33 33 31 29 27 26 25 24 24 25 26 26 25 25 26 27 28 28 28 29 29 30 31 33
45 46 46 47 48 49 49 51 53 55 57 59 60 61 64 67 71 76 80 81 84 86 85 82 80 80 79 79 77 72 70 71 71 68 65 66 67 65 59 53 51 50 50 50 52 55 56 51 44 40 39 37 35 36 37 36 34 34 34 32 32 32 31 29 27 26 25 24 23 24 25 25 24 24 24 25 26 25 25 26 27 27 29 30 32
44 44 45 46 46 47 48 50 51 53 55 57 58 61 62 62 68 74 77 79 82 84 85 82 81 83 81 76 74 71 68 69 73 72 71 70 68 64 60 54 50 50 52 53 53 55 53 46 41 40 39 36 35 36 36 35 34 33 33 32 31 31 30 28 26 25 24 23 22 22 23 23 22 23 24 24 23 23 24 24 25 26 28 30 32
43 44 44 45 45 45 47 48 49 51 53 55 58 60 58 58 61 58 52 51 53 58 70 77 77 83 84 76 71 73 73 73 75 75 72 70 66 61 57 52 49 50 52 53 54 54 49 44 41 40 38 36 35 35 35 34 33 33 32 31 31 30 28 27 25 24 22 21 21 21 22 21 21 22 23 22 22 22 22 23 24 26 28 30 32
43 43 44 44 44 44 46 47 49 50 51 53 56 54 51 51 46 34 32 40 36 35 55 72 70 71 76 75 75 81 81 73 70 71 69 65 60 56 53 51 50 50 52 53 52 49 44 41 41 40 37 35 35 34 34 33 33 32 32 31 30 28 27 26 24 23 21 20 20 20 20 20 20 21 21 20 20 21 21 22 24 26 29 31 32
42 42 43 43 43 43 44 45 47 48 48 50 50 47 45 46 41 30 29 40 34 24 35 53 58 58 65 71 74 79 80 70 62 60 59 59 57 55 55 55 53 53 53 53 50 46 42 41 40 38 35 35 34 33 33 33 32 32 31 30 28 27 26 25 24 22 21 19 19 19 19 19 19 20 20 19 19 20 20 22 24 26 29 31 32
42 42 42 43 42 41 41 43 44 44 43 44 43 40 38 37 36 36 32 33 40 24 16 32 46 51 58 65 66 67 67 64 58 52 51 52 53 53 53 54 54 53 52 49 46 43 42 41 39 36 35 34 33 32 32 32 32 32 31 29 27 27 26 25 24 22 20 19 18 18 18 18 19 19 18 18 18 19 20 21 24 26 28 30 32
42 42 41 41 40 39 39 40 40 38 36 35 33 32 30 26 23 25 26 20 34 32 22 14 24 30 34 39 42 42 42 43 44 45 47 49 51 50 50 51 51 52 50 47 43 42 41 40 37 35 34 33 32 31 32 32 32 32 30 28 27 26 26 25 24 21 19 18 18 18 18 18 18 18 17 17 17 18 19 21 24 26 28 30 32
39 39 39 38 37 36 36 36 35 31 28 27 24 21 22 20 15 14 13 13 17 19 15 10 12 14 15 18 22 25 27 28 33 38 42 44 45 46 47 48 47 47 46 44 42 41 40 38 36 35 33 32 31 31 31 31 31 31 30 28 27 27 26 26 24 21 19 18 18 17 18 18 18 17 17 16 17 18 19 21 24 26 28 30 32
39 38 36 35 35 34 33 32 31 27 24 23 21 18 17 17 15 13 15 15 15 12 8 7 8 10 14 17 20 23 27 30 33 37 40 41 42 43 44 45 44 43 41 41 42 41 39 37 35 33 32 31 31 31 31 31 31 31 30 28 27 27 26 26 24 21 19 18 17 18 18 18 18 17 16 16 17 18 19 21 23 26 28 30 32
39 37 34 33 33 33 31 29 28 26 23 22 21 21 19 16 15 14 15 18 20 18 14 11 10 11 15 18 21 24 27 30 34 38 40 41 42 42 42 41 41 41 41 42 42 40 37 35 33 32 31 31 31 32 31 31 31 31 30 29 28 27 27 26 24 22 19 18 18 19 19 18 18 17 17 17 17 18 20 21 23 25 28 29 31
38 35 33 31 30 30 29 27 25 23 23 22 22 21 20 18 17 16 16 17 19 20 19 18 16 16 16 18 22 26 29 31 34 37 39 39 40 40 39 40 41 42 43 42 40 37 35 33 32 32 31 31 32 32 31 31 31 31 30 30 29 27 27 26 25 22 20 19 19 20 20 19 18 17 17 17 18 19 20 21 23 25 27 29 31
37 35 34 33 30 27 26 25 24 22 23 25 25 24 23 22 22 22 22 21 21 22 23 23 23 23 21 22 25 29 32 34 36 37 37 37 38 38 39 40 42 42 41 39 37 35 34 33 32 32 32 32 32 32 31 31 31 31 31 30 29 28 28 27 25 23 21 21 21 21 21 19 18 17 17 18 19 20 21 22 23 25 27 29 31
35 34 33 33 32 29 27 26 25 24 24 26 27 27 26 26 26 27 27 25 25 25 25 26 28 28 27 28 30 30 29 30 32 34 35 36 37 39 40 42 42 40 37 35 33 33 33 32 32 32 32 32 33 32 31 31 31 31 31 31 30 29 28 27 26 24 23 23 23 22 21 20 18 18 18 19 20 21 21 22 23 24 26 28 30
33 31 30 30 30 30 29 28 28 27 25 26 28 28 28 28 28 29 28 27 25 23 23 23 24 25 26 27 29 30 30 31 32 34 35 36 38 40 41 41 38 36 33 32 31 32 32 31 31 32 32 33 33 32 32 31 31 31 31 31 30 30 29 28 27 26 25 24 24 23 21 20 19 19 19 20 21 22 22 22 23 24 26 28 30
33 31 29 28 29 30 30 30 30 28 27 26 26 27 26 27 27 27 27 26 23 20 18 19 20 21 23 24 26 28 30 32 33 34 35 37 37 37 37 35 33 31 30 30 30 31 31 31 31 32 32 33 33 32 32 32 31 31 31 31 31 31 30 29 28 27 27 26 25 23 21 20 20 20 20 21 22 23 23 23 24 24 26 28 30
31 30 31 31 32 32 32 32 32 30 28 27 26 26 26 26 25 23 22 21 20 19 18 20 23 24 25 25 26 25 25 27 29 31 32 33 34 33 33 32 31 30 30 30 30 31 31 31 32 32 33 33 33 33 32 32 32 32 31 31 32 32 31 30 30 29 28 27 25 23 22 21 21 21 22 23 23 24 24 24 24 25 26 28 30
30 31 31 32 32 32 32 31 31 29 28 28 27 27 26 26 26 24 21 20 19 19 21 24 26 26 25 23 22 22 22 23 25 27 29 30 31 32 33 33 32 31 31 31 31 31 32 32 32 33 34 34 34 33 33 33 33 32 31 31 32 33 32 32 31 30 29 28 26 24 23 22 22 22 23 24 24 25 25 25 25 25 26 28 29
Wind_Direction
253 253 252 251 252 252 251 248 244 243 243 244 246 248 250 253 254 255 256 257 256 256 256 256 261 265 259 250 248 248 249 251 257 272 288 302 317 328 337 341 343 347 351 355 357 354 351 349 347 344 340 339 339 340 341 341 340 339 338 339 339 338 337 336 334 334 336 335 333 330 327 323 317 312 305 298 292 290 289 288 287 285 283 282 281
251 252 252 253 254 253 252 251 249 247 245 244 246 247 249 251 253 255 255 255 254 252 252 253 258 263 259 252 251 251 252 254 259 270 283 296 311 322 331 336 340 345 350 355 359 358 355 352 350 346 340 336 336 336 337 336 336 336 337 337 337 337 335 333 332 332 332 332 329 324 319 316 312 308 304 299 294 291 289 289 289 286 283 280 279
248 250 253 256 258 257 257 258 256 254 250 248 246 247 248 250 253 254 253 252 251 249 249 252 256 259 257 252 251 252 253 255 259 267 278 290 306 318 326 333 338 343 349 354 357 358 357 354 352 349 342 336 334 334 334 334 334 334 335 336 336 335 333 331 330 330 328 327 325 318 313 311 309 307 303 299 296 293 292 291 290 287 284 281 279
246 251 256 258 260 261 264 265 263 261 256 251 248 247 248 250 252 254 253 251 249 246 246 249 252 256 255 252 250 251 252 254 257 264 273 286 302 315 323 330 335 341 348 352 354 355 355 353 351 348 344 338 334 333 333 333 333 333 333 335 336 334 331 328 327 326 323 322 320 316 311 308 308 307 303 297 294 291 289 289 289 288 286 286 284
247 253 256 258 262 266 270 272 270 266 258 253 250 248 248 250 252 254 253 252 249 246 246 248 249 252 252 249 248 249 250 253 257 262 269 281 297 310 320 328 335 341 346 349 349 348 347 346 344 343 340 336 333 332 333 332 332 332 332 333 335 332 329 326 322 320 318 316 315 313 310 307 307 306 302 296 291 288 286 287 288 289 289 289 288
247 252 255 258 263 268 274 279 280 275 267 259 254 252 253 253 254 256 255 253 251 248 247 246 245 246 246 245 246 248 249 253 258 262 267 276 291 305 314 325 334 339 343 344 343 340 337 337 335 333 332 330 328 328 329 331 331 330 330 331 332 329 326 323 319 315 313 311 309 308 308 306 305 304 301 296 292 289 289 291 292 292 292 291 290
247 250 254 258 264 270 275 280 281 279 275 270 266 263 262 263 263 262 261 259 256 252 249 246 244 242 241 242 245 247 248 253 258 262 266 273 285 297 309 322 333 338 340 340 338 336 333 331 329 325 321 321 323 323 325 327 328 327 327 328 328 326 323 320 318 315 313 310 306 305 305 305 303 301 299 297 295 294 295 295 294 292 293 293 292
246 251 255 258 265 272 274 276 279 280 278 277 276 272 269 271 273 270 269 268 265 258 251 246 243 240 239 241 244 246 247 252 258 262 265 272 282 293 306 320 330 336 337 336 336 334 333 331 329 323 316 315 318 320 321 323 324 324 324 324 324 322 320 318 316 314 313 311 308 305 304 303 302 301 300 299 298 298 298 296 292 291 293 293 292
247 251 254 257 263 268 270 274 277 279 281 282 282 281 276 273 274 276 277 276 271 265 256 249 245 244 242 243 245 246 247 252 257 261 266 273 280 290 304 316 325 331 333 332 332 332 332 333 333 329 319 313 315 317 319 320 321 321 321 321 320 318 317 316 314 314 314 312 310 308 306 305 304 303 301 300 300 301 301 297 293 293 293 291 291
253 253 254 258 263 264 265 269 272 276 282 284 285 288 286 279 276 278 279 278 275 270 262 255 252 251 249 248 247 246 246 251 256 260 267 273 279 289 300 308 318 324 325 325 326 329 331 332 334 332 323 313 312 315 317 319 319 319 318 318 317 314 313 312 313 313 313 313 312 309 308 307 305 304 303 301 303 303 299 294 294 293 292 292 292
253 254 256 259 261 261 262 265 268 271 276 280 284 288 290 288 287 284 280 277 275 272 266 262 260 258 257 253 249 245 245 249 253 260 267 273 279 286 293 301 309 314 315 315 318 325 330 332 332 328 320 313 309 312 319 320 319 318 317 315 314 311 310 309 310 311 312 313 313 310 310 308 305 305 304 302 303 301 293 291 292 291 291 292 289
250 251 255 257 259 260 261 262 265 269 272 277 282 284 285 290 295 296 290 281 275 272 268 266 263 263 263 257 250 245 245 247 251 259 267 273 279 284 288 293 299 304 306 305 310 321 325 328 330 325 316 313 311 312 323 325 320 317 315 313 311 308 307 307 309 310 311 312 312 310 310 309 307 306 304 301 300 297 290 290 291 289 289 289 286
248 248 248 252 257 258 259 259 262 265 269 274 278 280 284 289 293 294 292 288 284 278 271 265 263 265 267 260 250 245 244 245 249 258 266 272 278 281 283 288 294 299 301 295 300 314 317 315 321 321 318 319 317 315 323 327 322 317 313 310 309 307 306 307 308 308 309 310 311 310 310 310 308 306 303 299 296 291 287 287 289 288 287 286 289
245 246 244 247 253 256 257 257 259 262 265 269 273 277 281 285 287 288 290 292 293 287 275 268 266 268 269 262 250 246 245 245 249 257 264 270 276 277 279 288 296 299 300 293 292 305 314 314 316 317 318 322 322 318 320 324 323 319 311 306 306 306 307 307 306 306 309 310 311 310 310 310 308 306 304 300 294 289 287 288 290 288 285 288 297
243 246 245 244 247 251 254 255 257 259 261 266 270 273 275 278 280 283 285 288 290 287 279 273 269 269 269 261 251 247 247 247 249 255 262 267 272 274 278 290 298 299 303 301 296 303 315 316 314 314 317 321 321 319 319 321 321 318 309 303 304 306 306 306 305 307 310 311 311 310 309 308 306 305 305 301 294 289 289 292 293 288 286 293 304
241 245 246 245 245 248 251 253 254 256 258 262 265 266 268 271 273 275 278 280 282 283 281 278 275 273 270 262 254 249 249 250 251 255 260 265 269 273 281 291 296 299 304 306 303 306 312 311 310 313 315 317 319 319 320 322 321 316 307 301 303 305 305 304 305 308 310 311 311 310 309 308 306 305 305 302 297 294 294 297 296 291 291 298 304
242 245 247 248 248 247 248 249 250 252 255 258 260 262 264 264 264 266 268 271 275 277 276 275 274 273 269 263 256 252 251 252 253 255 258 263 268 274 282 289 293 298 304 305 304 306 307 307 308 311 313 316 318 320 321 322 320 314 306 302 303 303 303 304 306 309 310 310 310 309 309 308 307 306 306 303 299 297 297 297 296 295 298 303 305
246 247 249 250 250 248 247 246 246 247 249 252 255 256 257 258 259 260 261 262 265 268 267 266 268 270 269 263 256 252 251 252 253 254 257 263 268 274 281 286 289 294 299 300 301 303 303 304 308 311 312 316 318 319 319 318 316 311 305 303 303 302 303 305 306 308 309 309 310 310 310 310 310 308 307 304 300 298 298 299 300 303 306 306 305
249 248 250 250 251 251 252 253 254 254 255 256 256 254 251 251 252 253 253 254 256 258 259 261 264 267 267 262 255 251 250 251 252 254 257 263 268 272 278 283 287 290 294 295 297 300 301 303 307 310 312 314 317 317 316 314 310 307 304 303 303 303 304 306 306 308 309 309 310 311 311 311 311 310 308 306 304 303 304 306 307 308 307 305 305
251 248 249 251 253 257 258 260 261 261 261 261 262 262 262 260 257 251 247 246 248 251 256 258 259 262 264 261 256 252 250 250 252 254 257 261 266 269 274 281 284 286 289 293 296 298 299 302 306 308 310 313 315 314 312 309 306 305 303 303 304 304 304 305 306 307 308 309 311 312 312 312 311 310 309 307 307 308 309 310 310 308 306 307 308
254 253 254 257 260 262 263 265 267 269 270 267 266 267 269 269 269 264 257 251 246 245 249 254 254 256 258 258 256 253 250 249 251 252 255 259 264 267 271 277 281 282 285 290 294 296 297 300 304 307 309 311 312 311 309 306 304 303 302 303 304 303 303 304 305 306 308 309 311 312 312 312 311 310 310 310 311 312 312 311 309 308 308 309 310
260 262 266 268 269 269 269 270 273 275 275 273 272 272 270 267 269 271 272 270 260 248 244 247 249 250 253 255 254 252 249 249 250 251 253 257 261 265 269 273 276 278 283 287 289 291 294 298 302 305 307 308 308 308 306 304 303 302 302 303 302 302 303 304 305 307 309 310 311 312 312 312 312 312 313 314 314 314 312 311 310 310 310 311 312
265 267 270 271 273 274 275 275 275 276 275 275 276 279 278 274 274 276 278 281 278 262 249 246 246 246 248 251 252 251 249 248 248 250 252 255 258 261 265 268 272 276 280 283 285 287 291 295 299 302 304 305 305 305 303 302 302 302 301 301 301 302 303 305 306 308 310 312 312 313 313 313 314 316 317 316 315 313 313 312 312 311 312 314 314
264 266 267 268 269 270 271 271 272 271 272 272 273 274 276 277 278 278 276 277 279 272 259 252 249 246 245 247 250 251 249 247 247 248 251 253 256 259 262 264 268 272 276 279 281 284 287 291 295 298 300 301 302 302 301 300 300 300 300 299 301 303 303 305 307 310 311 312 313 314 314 316 318 319 318 315 314 314 313 313 312 313 314 316 316
264 265 266 267 267 266 265 265 266 268 269 271 271 271 271 273 275 275 272 271 273 273 268 262 256 250 244 243 246 249 249 247 246 248 250 252 253 256 260 262 264 268 272 276 279 281 284 289 293 294 296 298 300 300 300 299 298 298 298 298 300 302 304 305 308 311 311 313 314 316 318 320 320 319 317 315 314 314 314 313 314 315 316 316 317
266 267 268 269 269 269 267 266 267 270 272 274 275 273 271 272 273 271 268 268 268 268 271 270 264 256 248 243 242 244 246 247 247 247 249 251 252 254 257 260 262 265 268 272 276 279 282 287 290 291 294 297 300 300 299 297 297 296 296 298 301 302 304 307 309 310 312 313 316 319 321 322 321 318 315 315 315 315 314 314 315 317 317 318 318
269 270 270 271 271 270 271 270 270 271 273 274 275 274 272 271 270 268 267 268 268 267 270 273 271 264 258 251 246 243 243 245 246 248 249 251 251 253 257 258 260 263 265 268 272 276 280 284 287 289 292 295 298 298 296 295 294 294 295 298 301 302 304 308 309 310 312 315 318 322 323 322 319 317 316 315 315 315 315 316 317 318 319 319 320
266 266 266 267 267 267 268 269 269 270 271 272 272 272 271 270 269 268 268 268 268 267 268 270 270 267 264 260 255 250 246 243 244 246 249 251 251 252 255 257 259 261 263 266 269 274 278 282 283 285 289 292 294 294 294 293 292 293 295 298 300 302 304 307 309 310 312 316 320 322 323 320 317 317 316 315 315 315 316 317 318 319 320 320 321
264 264 264 264 265 266 266 267 268 268 269 270 270 270 270 269 268 267 266 265 264 264 263 262 260 257 256 258 258 256 253 247 244 244 246 249 251 250 252 255 258 260 262 265 268 272 277 279 280 283 287 290 291 291 291 291 291 292 295 297 299 301 305 307 308 310 313 317 320 321 320 318 317 317 316 315 315 316 317 318 319 320 320 321 322
267 267 268 267 267 268 268 268 268 268 268 268 268 267 266 266 265 265 264 263 261 260 260 260 258 255 253 252 254 255 255 251 247 243 242 244 247 247 249 253 258 260 262 264 266 271 275 276 277 282 285 287 288 289 288 288 290 291 294 296 298 301 305 305 307 310 313 317 319 319 318 318 317 316 315 314 314 316 317 318 320 321 322 323 324
268 268 268 268 268 268 269 270 270 270 269 269 268 267 266 266 265 264 263 262 260 258 257 257 257 258 257 255 253 252 253 253 249 243 240 240 241 243 246 252 258 260 260 262 265 269 272 274 277 282 285 285 286 287 286 287 289 291 293 295 297 300 304 304 306 310 314 316 317 318 318 318 316 314 313 313 314 317 319 320 322 323 324 325 326
269 269 268 269 268 268 268 269 269 270 270 269 269 268 267 266 265 264 264 262 260 258 256 254 254 254 256 257 257 255 255 255 252 245 240 240 240 241 244 251 257 258 258 260 265 268 269 273 277 281 283 284 285 285 284 285 288 290 291 293 297 300 302 303 305 309 313 315 316 318 318 317 315 313 312 313 315 318 321 323 324 326 327 328 329
269 269 269 269 269 269 269 270 270 271 271 270 270 269 268 268 268 266 264 262 260 258 255 254 253 252 252 252 254 254 255 256 254 248 241 240 241 241 243 249 256 259 259 261 266 267 268 273 279 280 281 283 283 282 283 284 286 289 290 291 296 299 300 302 305 309 313 314 316 318 318 316 313 312 312 313 316 319 323 325 327 329 331 331 332
269 269 268 268 268 268 269 270 271 271 272 272 272 272 272 272 271 269 266 263 260 257 254 251 249 249 250 250 249 250 251 253 255 252 245 241 240 239 242 250 256 258 260 263 266 269 271 275 278 278 278 282 281 280 281 283 284 287 288 290 295 298 298 301 305 308 312 314 316 318 318 315 312 311 311 314 318 322 325 329 330 332 334 335 336
268 267 266 266 267 267 269 271 271 272 273 274 275 276 277 276 275 274 271 266 261 255 250 248 246 245 245 246 247 248 249 251 254 255 251 246 242 239 241 250 254 255 259 263 266 271 274 274 274 276 279 280 279 278 280 282 283 285 287 290 294 296 297 299 304 307 310 313 315 317 317 314 310 309 311 315 320 324 328 331 332 334 337 338 339
266 265 265 266 268 270 272 273 274 275 277 278 278 280 279 279 282 279 271 267 266 257 245 241 242 241 241 243 243 245 246 246 248 250 251 251 249 244 243 248 252 254 260 264 267 272 273 271 271 277 279 277 276 276 278 280 282 283 286 289 292 294 295 297 301 305 308 311 314 315 315 311 307 307 312 317 321 326 329 331 334 336 338 339 339
264 265 266 267 270 272 273 274 275 276 278 278 278 278 278 280 286 283 267 262 273 265 246 238 237 235 236 239 238 239 241 242 243 247 249 250 251 248 247 251 257 259 262 266 269 272 272 269 272 278 277 273 273 275 276 279 281 282 285 288 290 292 293 295 298 303 305 308 311 313 311 306 303 306 311 316 320 325 328 331 334 336 337 337 338
266 267 268 269 271 274 274 275 276 276 277 278 276 276 277 280 284 280 252 245 255 248 233 233 233 229 229 233 236 236 237 240 244 247 247 245 248 251 253 257 262 263 265 268 269 269 267 269 273 276 273 270 271 273 275 278 280 281 283 286 288 289 291 292 295 300 302 305 309 309 305 301 300 303 309 313 317 323 328 331 333 335 335 336 337
267 270 271 270 272 275 275 276 278 278 279 280 277 276 280 280 279 282 261 237 222 194 194 207 214 215 216 221 228 232 233 238 246 249 244 240 244 251 255 258 261 262 264 268 267 264 265 271 274 272 268 267 268 271 274 276 277 279 282 284 286 287 288 289 292 296 298 302 304 303 298 295 295 300 305 310 316 322 327 329 331 333 334 335 336
267 269 271 271 273 274 273 275 280 281 282 284 283 284 289 286 286 300 294 240 214 209 194 188 195 206 215 222 231 236 236 238 244 244 238 237 243 251 255 256 258 260 264 266 265 263 267 272 272 268 265 265 267 270 272 274 276 278 280 283 284 284 284 286 289 291 295 298 298 296 292 290 292 297 302 307 313 320 324 327 329 332 333 334 334
266 267 270 270 271 272 272 273 279 283 285 287 288 290 296 295 286 300 308 260 229 247 272 234 203 212 221 226 232 233 230 232 236 236 236 240 245 250 253 255 257 260 262 263 263 265 269 271 268 264 262 263 266 269 270 272 274 277 279 281 281 280 281 283 285 288 291 293 293 290 286 285 289 294 298 303 310 316 321 324 328 331 332 333 334
265 265 267 267 266 269 271 271 275 280 283 286 289 287 290 294 278 262 273 264 243 248 262 247 219 212 208 211 216 217 220 229 236 238 242 246 248 251 254 257 259 261 261 260 263 267 270 268 263 259 259 262 265 267 269 270 273 275 277 278 278 277 278 281 282 285 288 289 288 284 279 280 285 291 294 299 306 311 316 321 325 329 331 332 332
266 265 265 265 264 265 267 267 270 274 275 276 281 282 280 285 281 257 242 247 253 250 235 219 215 210 214 223 226 226 230 234 237 240 245 248 249 251 255 257 259 260 259 260 264 267 266 263 257 255 258 262 264 266 267 269 271 274 275 276 275 275 276 278 280 282 283 282 279 275 272 276 282 287 291 296 301 305 311 318 323 327 330 331 332
264 262 261 262 262 261 262 261 263 269 272 270 273 279 280 278 279 275 263 257 261 266 265 256 241 226 224 229 232 233 235 240 243 247 250 251 252 254 255 255 256 257 259 261 264 264 261 256 253 254 259 262 263 265 266 268 270 272 273 273 273 273 274 276 277 278 277 274 270 267 267 272 279 284 288 292 296 300 307 314 320 325 329 330 331
258 255 254 256 256 255 257 259 259 264 271 273 271 272 274 274 274 278 279 274 269 268 268 267 261 251 246 246 248 247 245 247 250 252 253 253 254 254 254 254 255 258 260 262 261 258 254 250 251 256 260 262 263 265 265 266 268 270 271 272 272 271 272 273 274 273 271 267 263 262 265 270 276 282 286 289 292 296 303 310 317 323 327 329 330
251 249 248 248 249 248 250 255 261 268 275 280 280 277 275 276 279 282 282 279 274 270 269 270 270 267 263 261 260 259 257 255 254 254 255 253 251 250 253 256 257 258 259 257 253 249 248 249 253 258 261 262 263 263 264 265 268 269 270 271 271 270 270 271 271 270 266 261 258 259 262 267 274 280 284 287 289 293 299 306 313 320 324 327 328
246 245 243 243 245 248 249 253 261 270 277 279 279 279 279 281 284 287 286 283 279 275 272 271 270 270 267 263 259 256 254 252 251 251 251 250 249 250 254 258 258 257 253 249 245 245 248 252 256 259 260 261 262 263 263 265 267 268 269 271 270 270 270 270 269 267 262 257 255 256 260 266 273 279 282 285 287 289 294 301 309 315 320 324 326
244 245 247 248 250 253 257 259 262 267 271 273 274 277 281 282 283 285 286 286 285 282 277 272 269 266 263 259 252 245 242 243 246 248 249 249 250 252 254 254 252 249 245 243 244 248 252 255 257 258 259 261 262 263 264 265 266 267 268 269 269 269 268 267 267 264 259 254 253 254 259 266 272 277 281 283 285 287 291 297 304 311 316 320 323
247 248 253 257 258 258 261 264 266 268 270 270 271 274 276 276 278 281 282 281 278 274 269 266 265 263 257 251 244 241 242 245 246 247 248 248 249 250 248 245 241 240 242 245 250 253 255 256 258 259 261 262 263 264 265 265 265 266 266 266 267 267 266 265 264 261 256 252 251 253 258 265 271 275 279 282 283 285 289 293 299 306 311 315 318
250 252 254 257 260 262 263 264 265 266 267 268 268 268 266 266 269 271 271 270 269 264 257 256 259 258 254 249 245 244 246 247 246 245 246 246 246 244 240 237 236 241 247 253 256 257 258 259 260 260 261 261 262 264 264 264 264 264 264 264 265 265 264 263 261 259 255 252 251 252 257 264 269 274 278 280 282 284 288 291 296 301 306 310 314
254 255 256 257 259 261 262 262 263 263 262 263 263 263 261 259 258 257 259 264 266 260 252 249 249 246 243 243 246 247 246 245 245 245 245 244 242 240 239 241 245 252 256 259 260 261 261 261 261 261 262 263 264 265 265 265 265 264 263 262 262 262 262 261 259 257 254 252 251 252 257 262 267 272 276 278 280 283 287 290 294 298 302 306 310
Height
5895 5896 5896 5897 5897 5898 5898 5899 5899 5900 5901 5902 5904 5905 5905 5906 5907 5908 5908 5909 5910 5911 5911 5912 5912 5913 5913 5913 5913 5913 5913 5913 5913 5913 5913 5913 5913 5912 5912 5911 5910 5909 5908 5907 5905 5904 5902 5901 5900 5899 5897 5896 5895 5894 5893 5892 5891 5890 5889 5889 5888 5887 5885 5884 5883 5882 5882 5881 5880 5878 5877 5875 5873 5872 5870 5869 5868 5867 5865 5864 5863 5862 5860 5859 5858
5893 5893 5894 5894 5895 5895 5895 5896 5896 5897 5898 5900 5901 5902 5902 5903 5903 5904 5906 5907 5907 5908 5909 5909 5910 5911 5911 5911 5912 5912 5912 5911 5911 5912 5911 5911 5911 5911 5910 5910 5909 5908 5907 5906 5904 5903 5901 5900 5899 5897 5896 5895 5894 5892 5891 5890 5889 5889 5888 5887 5886 5885 5884 5882 5881 5880 5879 5878 5877 5875 5873 5871 5869 5868 5866 5865 5865 5864 5862 5861 5859 5857 5856 5854 5853
5890 5891 5891 5892 5892 5893 5893 5894 5894 5895 5896 5897 5898 5899 5899 5899 5899 5901 5902 5903 5904 5905 5906 5906 5907 5909 5909 5910 5910 5910 5910 5910 5910 5910 5910 5909 5909 5909 5909 5908 5908 5907 5906 5904 5903 5902 5900 5899 5898 5896 5895 5894 5892 5891 5890 5889 5888 5887 5886 5885 5884 5883 5882 5880 5879 5878 5876 5874 5873 5871 5869 5868 5866 5864 5864 5863 5862 5860 5859 5857 5855 5853 5851 5850 5849
5888 5889 5889 5890 5890 5890 5891 5892 5892 5892 5893 5894 5895 5895 5896 5896 5896 5898 5899 5900 5901 5902 5903 5904 5905 5906 5907 5908 5908 5908 5908 5908 5909 5908 5908 5908 5907 5907 5906 5906 5906 5905 5904 5903 5901 5900 5899 5898 5896 5895 5894 5892 5891 5889 5888 5887 5886 5885 5883 5883 5882 5881 5880 5878 5877 5875 5873 5871 5868 5867 5866 5864 5862 5861 5860 5859 5858 5856 5854 5852 5850 5848 5847 5846 5844
5885 5887 5887 5888 5888 5889 5889 5889 5890 5890 5891 5891 5892 5892 5893 5893 5894 5894 5895 5896 5897 5898 5899 5901 5902 5904 5905 5905 5906 5906 5907 5907 5907 5907 5907 5906 5906 5905 5905 5904 5903 5903 5902 5901 5900 5898 5897 5896 5895 5894 5892 5890 5889 5888 5886 5885 5884 5882 5881 5880 5879 5878 5877 5876 5875 5873 5871 5868 5865 5862 5861 5860 5858 5856 5856 5855 5853 5850 5849 5847 5845 5844 5842 5841 5840
5883 5884 5885 5886 5886 5887 5887 5888 5888 5888 5889 5889 5889 5890 5890 5891 5891 5892 5892 5893 5894 5895 5896 5898 5899 5901 5902 5902 5903 5904 5905 5905 5905 5905 5905 5905 5904 5904 5903 5902 5901 5900 5900 5898 5897 5896 5895 5894 5893 5891 5890 5888 5886 5885 5884 5883 5881 5880 5879 5877 5876 5875 5873 5872 5871 5870 5868 5866 5863 5859 5857 5856 5854 5852 5850 5849 5847 5845 5844 5844 5842 5839 5838 5837 5835
5881 5882 5883 5884 5884 5885 5885 5886 5886 5886 5887 5887 5887 5888 5888 5889 5889 5890 5890 5890 5892 5892 5893 5894 5896 5897 5898 5899 5901 5902 5903 5903 5903 5903 5903 5903 5903 5902 5901 5900 5899 5898 5897 5896 5895 5894 5892 5891 5889 5888 5887 5885 5884 5882 5881 5880 5879 5877 5876 5874 5873 5871 5870 5868 5867 5866 5864 5862 5860 5857 5854 5851 5849 5847 5845 5843 5842 5841 5840 5839 5837 5834 5832 5831 5830
5878 5879 5880 5881 5882 5883 5884 5884 5884 5885 5885 5885 5885 5886 5886 5887 5887 5887 5888 5889 5889 5890 5890 5891 5892 5894 5895 5896 5898 5899 5900 5900 5901 5901 5901 5901 5901 5900 5899 5897 5897 5896 5895 5894 5893 5891 5890 5888 5886 5885 5883 5882 5881 5879 5878 5877 5876 5874 5873 5871 5870 5868 5866 5865 5863 5862 5860 5859 5856 5854 5851 5848 5845 5842 5840 5839 5838 5836 5835 5833 5831 5829 5827 5826 5825
5876 5877 5878 5879 5881 5881 5881 5881 5882 5883 5883 5883 5884 5884 5884 5885 5885 5885 5886 5887 5887 5887 5888 5888 5889 5891 5892 5893 5895 5896 5897 5897 5898 5898 5898 5898 5898 5897 5896 5895 5894 5894 5893 5892 5890 5889 5887 5886 5884 5882 5880 5878 5877 5876 5875 5874 5872 5871 5869 5868 5866 5864 5862 5861 5859 5858 5856 5855 5852 5849 5847 5845 5842 5838 5836 5834 5833 5832 5830 5828 5827 5826 5824 5823 5821
5874 5875 5876 5878 5878 5878 5879 5879 5880 5880 5881 5882 5882 5882 5882 5883 5883 5883 5884 5885 5885 5885 5885 5886 5887 5889 5890 5891 5892 5893 5894 5894 5894 5894 5895 5895 5895 5895 5893 5892 5892 5891 5890 5889 5887 5886 5885 5883 5881 5879 5877 5875 5874 5873 5871 5870 5869 5867 5866 5865 5863 5861 5859 5857 5855 5854 5852 5850 5848 5845 5843 5841 5838 5834 5832 5830 5829 5828 5825 5822 5821 5821 5819 5818 5817
5871 5873 5874 5875 5875 5876 5876 5877 5878 5878 5879 5880 5880 5880 5880 5881 5881 5882 5882 5882 5883 5883 5883 5884 5886 5887 5888 5888 5889 5889 5890 5891 5891 5891 5892 5892 5892 5891 5890 5889 5889 5888 5887 5886 5884 5884 5883 5881 5879 5877 5874 5871 5870 5869 5867 5866 5865 5863 5862 5861 5859 5857 5855 5853 5852 5850 5848 5846 5844 5840 5838 5836 5834 5831 5829 5826 5825 5823 5820 5817 5817 5816 5814 5812 5810
5868 5870 5872 5872 5872 5873 5874 5875 5875 5876 5877 5877 5878 5878 5878 5879 5879 5879 5880 5880 5880 5881 5882 5883 5884 5884 5885 5886 5886 5887 5888 5888 5888 5888 5889 5889 5888 5887 5887 5886 5887 5886 5884 5883 5882 5881 5880 5878 5877 5875 5872 5869 5867 5866 5864 5863 5861 5860 5858 5857 5856 5853 5851 5850 5848 5846 5843 5842 5840 5836 5833 5832 5830 5827 5824 5822 5820 5818 5815 5813 5812 5811 5808 5806 5804
5865 5867 5869 5869 5869 5870 5871 5872 5873 5874 5875 5875 5875 5875 5876 5876 5877 5877 5877 5878 5878 5878 5879 5880 5881 5882 5883 5883 5883 5884 5885 5885 5885 5885 5886 5885 5884 5883 5883 5883 5884 5883 5882 5880 5879 5878 5878 5876 5874 5873 5870 5868 5867 5865 5862 5860 5858 5856 5854 5853 5851 5849 5847 5846 5844 5842 5839 5837 5835 5832 5829 5828 5825 5822 5819 5817 5815 5814 5811 5809 5808 5805 5802 5800 5797
5862 5864 5865 5866 5866 5867 5868 5869 5870 5871 5872 5872 5872 5872 5873 5874 5874 5875 5875 5875 5875 5876 5876 5877 5878 5879 5880 5880 5881 5881 5882 5882 5882 5882 5882 5881 5879 5878 5878 5881 5882 5881 5880 5877 5875 5874 5874 5873 5872 5870 5867 5866 5865 5863 5860 5857 5854 5852 5850 5848 5846 5845 5843 5842 5840 5838 5835 5833 5830 5828 5825 5823 5820 5817 5814 5813 5811 5809 5807 5805 5803 5800 5797 5793 5790
5858 5860 5861 5862 5863 5864 5864 5866 5867 5868 5868 5868 5869 5870 5870 5871 5871 5871 5872 5872 5872 5873 5873 5873 5874 5875 5876 5877 5877 5878 5878 5879 5879 5879 5878 5877 5875 5873 5875 5878 5880 5878 5876 5874 5872 5870 5870 5870 5869 5866 5863 5861 5860 5858 5855 5852 5850 5848 5845 5843 5842 5840 5839 5838 5835 5833 5831 5828 5827 5825 5823 5820 5816 5813 5810 5808 5806 5804 5802 5800 5798 5795 5791 5788 5785
5855 5856 5857 5859 5860 5860 5861 5862 5863 5864 5865 5865 5865 5866 5867 5867 5868 5868 5868 5869 5869 5869 5870 5870 5870 5871 5872 5873 5874 5875 5875 5875 5875 5875 5875 5873 5870 5869 5872 5875 5876 5874 5873 5871 5869 5867 5867 5867 5865 5863 5860 5857 5855 5853 5850 5846 5844 5842 5840 5839 5837 5837 5835 5833 5831 5829 5827 5824 5822 5820 5818 5815 5812 5809 5806 5803 5801 5798 5796 5795 5793 5790 5787 5783 5780
5851 5852 5854 5855 5856 5857 5858 5858 5859 5860 5860 5861 5861 5862 5863 5863 5864 5863 5864 5865 5865 5866 5866 5866 5866 5867 5867 5868 5870 5871 5871 5871 5872 5871 5870 5869 5866 5866 5869 5871 5871 5870 5869 5868 5866 5865 5864 5863 5862 5859 5856 5853 5851 5849 5845 5842 5840 5838 5836 5835 5834 5833 5831 5829 5827 5825 5822 5820 5818 5816 5813 5811 5807 5804 5801 5799 5796 5794 5792 5790 5787 5784 5781 5778 5775
5847 5848 5849 5850 5852 5852 5853 5853 5854 5855 5855 5856 5856 5857 5857 5858 5858 5859 5859 5860 5861 5861 5861 5862 5862 5863 5863 5864 5866 5867 5867 5867 5867 5867 5866 5864 5863 5864 5865 5867 5867 5866 5865 5864 5863 5862 5860 5859 5857 5855 5853 5850 5847 5845 5842 5840 5837 5835 5833 5832 5830 5829 5827 5825 5823 5821 5818 5815 5813 5811 5809 5806 5803 5799 5797 5794 5792 5789 5787 5784 5780 5777 5774 5772 5769
5843 5844 5845 5846 5847 5848 5848 5848 5849 5850 5850 5850 5851 5850 5851 5851 5851 5852 5853 5854 5856 5856 5856 5857 5858 5858 5859 5860 5860 5861 5862 5862 5862 5862 5861 5861 5860 5860 5861 5862 5863 5862 5861 5860 5859 5858 5856 5855 5853 5850 5848 5846 5844 5842 5839 5837 5834 5832 5830 5828 5827 5825 5823 5821 5819 5817 5814 5811 5808 5806 5803 5800 5797 5795 5791 5788 5785 5782 5780 5777 5774 5771 5769 5766 5763
5839 5839 5840 5840 5841 5843 5843 5844 5844 5844 5844 5844 5844 5844 5845 5845 5845 5844 5845 5847 5849 5851 5851 5852 5852 5853 5854 5854 5854 5856 5857 5857 5858 5858 5857 5857 5856 5857 5857 5858 5858 5857 5856 5856 5855 5853 5852 5850 5849 5846 5844 5843 5841 5838 5836 5833 5831 5829 5826 5824 5823 5821 5819 5817 5815 5812 5809 5807 5804 5801 5798 5795 5792 5789 5786 5783 5780 5777 5775 5772 5769 5766 5764 5761 5758
5834 5833 5834 5835 5837 5837 5838 5839 5840 5840 5840 5839 5839 5839 5840 5840 5838 5838 5839 5841 5842 5844 5845 5846 5847 5847 5847 5848 5849 5850 5851 5852 5853 5853 5852 5852 5852 5852 5853 5854 5854 5853 5852 5851 5850 5848 5847 5846 5844 5842 5840 5839 5837 5834 5832 5830 5827 5825 5823 5821 5819 5817 5815 5813 5811 5808 5805 5802 5799 5796 5793 5791 5788 5785 5781 5778 5775 5773 5770 5767 5765 5762 5759 5757 5754
5828 5828 5829 5830 5831 5832 5833 5834 5835 5835 5835 5834 5833 5835 5836 5835 5834 5834 5835 5836 5837 5837 5838 5840 5841 5841 5841 5841 5843 5844 5845 5846 5847 5847 5847 5847 5847 5848 5849 5850 5849 5848 5848 5847 5846 5844 5842 5841 5840 5839 5837 5835 5833 5830 5828 5826 5823 5821 5819 5817 5815 5813 5811 5809 5806 5803 5800 5797 5794 5791 5789 5786 5783 5780 5776 5773 5770 5768 5765 5763 5760 5758 5755 5753 5750
5823 5823 5824 5825 5826 5827 5828 5828 5829 5829 5829 5828 5828 5829 5829 5829 5829 5829 5830 5830 5831 5832 5832 5833 5834 5835 5835 5836 5837 5838 5838 5839 5841 5841 5841 5841 5842 5843 5844 5844 5844 5844 5844 5843 5841 5839 5838 5837 5836 5835 5833 5831 5829 5826 5824 5821 5819 5817 5815 5813 5811 5809 5807 5805 5802 5799 5796 5793 5790 5787 5784 5781 5778 5775 5771 5768 5765 5763 5761 5758 5756 5753 5751 5748 5745
5817 5818 5819 5820 5821 5821 5822 5822 5822 5822 5823 5822 5823 5823 5823 5822 5822 5823 5824 5824 5825 5826 5826 5826 5826 5827 5829 5831 5832 5832 5832 5833 5834 5834 5834 5835 5836 5837 5838 5839 5839 5839 5839 5838 5836 5835 5833 5832 5832 5831 5829 5827 5825 5822 5820 5817 5815 5813 5811 5809 5807 5805 5803 5800 5797 5794 5791 5789 5786 5783 5780 5776 5773 5770 5767 5764 5761 5759 5757 5754 5752 5749 5747 5744 5741
5811 5812 5813 5814 5815 5815 5816 5815 5815 5816 5816 5816 5816 5817 5818 5817 5816 5816 5816 5817 5817 5818 5819 5818 5818 5820 5822 5824 5825 5826 5827 5827 5828 5827 5827 5828 5830 5831 5832 5833 5833 5832 5832 5832 5831 5829 5828 5827 5827 5826 5824 5823 5821 5818 5815 5813 5811 5808 5806 5805 5803 5801 5799 5796 5793 5790 5787 5784 5782 5778 5775 5771 5768 5765 5763 5760 5758 5755 5753 5751 5748 5746 5743 5740 5736
5806 5806 5807 5807 5808 5808 5808 5808 5809 5809 5809 5809 5809 5810 5810 5810 5809 5808 5807 5807 5809 5811 5812 5812 5812 5812 5814 5816 5817 5818 5819 5820 5821 5820 5821 5822 5823 5824 5825 5826 5826 5826 5826 5826 5825 5824 5823 5822 5822 5821 5819 5818 5816 5813 5811 5809 5806 5804 5802 5800 5798 5796 5794 5791 5788 5785 5782 5780 5776 5773 5769 5766 5763 5761 5758 5756 5754 5752 5750 5747 5745 5742 5739 5736 5732
5799 5800 5800 5801 5801 5801 5801 5801 5802 5801 5801 5801 5801 5802 5802 5802 5801 5800 5798 5799 5801 5803 5804 5805 5805 5806 5808 5810 5810 5810 5811 5812 5813 5814 5815 5815 5816 5818 5819 5819 5818 5818 5819 5819 5818 5818 5818 5817 5816 5816 5815 5813 5811 5809 5806 5804 5802 5800 5797 5796 5794 5791 5788 5785 5782 5780 5777 5774 5770 5767 5764 5761 5759 5757 5754 5752 5750 5749 5746 5744 5741 5738 5735 5732 5728
5793 5794 5794 5794 5794 5794 5794 5794 5794 5794 5793 5793 5793 5793 5794 5793 5793 5792 5792 5793 5794 5795 5795 5796 5798 5799 5800 5801 5802 5803 5802 5803 5805 5807 5808 5809 5810 5811 5811 5811 5810 5811 5811 5812 5812 5812 5812 5812 5811 5810 5809 5807 5806 5804 5801 5799 5797 5795 5794 5792 5789 5786 5783 5780 5778 5775 5772 5769 5765 5762 5760 5757 5755 5753 5751 5749 5747 5745 5743 5740 5737 5735 5731 5728 5724
5787 5787 5787 5787 5787 5787 5787 5787 5786 5786 5786 5785 5784 5784 5785 5784 5784 5785 5785 5785 5785 5786 5786 5786 5788 5789 5790 5790 5792 5794 5794 5795 5797 5799 5799 5800 5801 5802 5802 5801 5802 5803 5804 5805 5806 5806 5806 5806 5805 5804 5803 5802 5800 5798 5796 5794 5792 5791 5789 5787 5785 5782 5779 5776 5774 5771 5768 5764 5761 5758 5756 5753 5751 5750 5748 5746 5744 5742 5739 5737 5734 5732 5729 5725 5721
5780 5779 5780 5779 5779 5778 5778 5778 5778 5777 5777 5776 5776 5775 5774 5774 5774 5775 5776 5777 5777 5777 5777 5778 5778 5779 5779 5781 5783 5784 5784 5786 5787 5787 5788 5789 5790 5791 5793 5794 5795 5797 5798 5798 5799 5800 5800 5798 5798 5799 5798 5796 5795 5793 5791 5789 5788 5786 5785 5783 5780 5778 5775 5772 5770 5767 5764 5760 5757 5755 5752 5750 5748 5747 5745 5743 5741 5739 5737 5734 5732 5729 5726 5722 5718
5772 5772 5772 5772 5771 5771 5770 5769 5769 5768 5767 5767 5765 5764 5763 5764 5764 5764 5765 5766 5767 5768 5769 5769 5769 5768 5769 5771 5773 5772 5772 5773 5773 5774 5776 5777 5778 5780 5784 5787 5788 5789 5791 5791 5792 5793 5793 5791 5791 5793 5792 5790 5789 5787 5785 5784 5783 5782 5781 5778 5776 5774 5771 5768 5766 5763 5759 5756 5754 5751 5749 5747 5746 5744 5742 5740 5738 5736 5734 5731 5729 5726 5723 5719 5716
5764 5765 5765 5765 5765 5764 5763 5762 5761 5760 5759 5758 5756 5754 5752 5753 5753 5752 5753 5753 5754 5755 5757 5758 5758 5759 5760 5760 5761 5762 5763 5763 5762 5764 5767 5767 5768 5772 5777 5780 5781 5782 5783 5784 5785 5786 5785 5785 5785 5786 5786 5784 5782 5781 5779 5778 5778 5777 5775 5773 5771 5769 5766 5764 5761 5758 5755 5753 5750 5748 5746 5744 5743 5741 5739 5737 5735 5733 5731 5728 5725 5723 5720 5716 5713
5758 5758 5757 5757 5757 5756 5754 5754 5752 5751 5750 5749 5746 5744 5742 5742 5741 5740 5739 5738 5737 5738 5740 5742 5745 5748 5748 5748 5749 5752 5755 5755 5756 5759 5761 5760 5761 5765 5770 5772 5773 5775 5776 5777 5778 5778 5778 5779 5780 5780 5779 5778 5776 5775 5774 5773 5773 5772 5770 5768 5766 5764 5762 5759 5757 5754 5752 5749 5747 5744 5742 5741 5739 5738 5736 5734 5732 5730 5728 5725 5722 5720 5717 5713 5710
5751 5750 5750 5750 5749 5748 5747 5745 5743 5742 5741 5739 5736 5734 5732 5729 5726 5723 5722 5721 5720 5719 5719 5723 5729 5734 5734 5735 5737 5742 5745 5747 5750 5754 5756 5754 5753 5758 5763 5765 5766 5768 5770 5770 5771 5771 5772 5774 5775 5774 5772 5771 5770 5769 5768 5768 5768 5767 5765 5763 5761 5759 5757 5755 5752 5750 5748 5746 5743 5741 5739 5737 5736 5735 5733 5731 5729 5727 5724 5722 5720 5717 5714 5711 5708
5743 5742 5742 5742 5741 5741 5739 5737 5735 5734 5732 5729 5728 5724 5720 5717 5712 5706 5701 5698 5695 5695 5700 5706 5714 5720 5721 5722 5726 5733 5739 5741 5743 5746 5748 5747 5747 5750 5755 5757 5759 5761 5763 5763 5764 5765 5766 5768 5768 5767 5766 5764 5763 5763 5763 5763 5762 5761 5760 5758 5756 5754 5752 5750 5748 5745 5744 5741 5739 5736 5735 5734 5733 5732 5730 5728 5726 5723 5721 5719 5717 5715 5712 5709 5706
5735 5735 5735 5735 5734 5733 5731 5729 5727 5726 5723 5721 5718 5714 5711 5708 5700 5690 5683 5674 5664 5664 5677 5690 5698 5703 5707 5711 5718 5725 5731 5732 5733 5735 5738 5740 5742 5745 5747 5749 5752 5754 5755 5756 5758 5759 5760 5761 5761 5760 5759 5758 5757 5757 5757 5757 5756 5756 5754 5753 5751 5749 5747 5745 5743 5741 5739 5737 5734 5732 5731 5730 5729 5728 5727 5724 5722 5720 5719 5717 5715 5712 5710 5707 5704
5728 5728 5728 5728 5727 5725 5723 5721 5720 5718 5715 5712 5709 5705 5704 5701 5690 5679 5674 5669 5661 5656 5663 5673 5680 5684 5692 5703 5710 5714 5717 5720 5722 5725 5729 5733 5736 5739 5741 5743 5746 5748 5749 5750 5752 5753 5754 5754 5754 5753 5752 5752 5752 5752 5752 5751 5751 5750 5749 5748 5746 5744 5742 5740 5739 5737 5735 5732 5730 5728 5727 5727 5726 5725 5723 5721 5720 5718 5716 5714 5712 5710 5707 5704 5701
5721 5721 5721 5720 5720 5718 5716 5715 5713 5711 5708 5705 5701 5698 5698 5695 5687 5678 5673 5672 5672 5664 5654 5653 5663 5675 5686 5695 5699 5700 5704 5711 5714 5717 5722 5727 5731 5733 5735 5737 5740 5742 5742 5744 5746 5747 5748 5747 5747 5747 5746 5746 5746 5746 5746 5746 5746 5745 5744 5743 5741 5739 5738 5736 5734 5733 5731 5728 5726 5725 5724 5724 5723 5722 5720 5719 5717 5715 5713 5712 5709 5707 5704 5702 5699
5715 5714 5713 5713 5713 5712 5710 5708 5705 5703 5702 5698 5694 5693 5692 5688 5686 5684 5677 5674 5677 5672 5655 5647 5657 5671 5679 5684 5686 5688 5696 5705 5708 5710 5715 5721 5724 5727 5729 5731 5734 5736 5737 5738 5740 5741 5741 5741 5740 5740 5740 5740 5741 5741 5740 5740 5740 5740 5739 5737 5736 5734 5733 5731 5730 5728 5726 5724 5722 5721 5721 5721 5720 5719 5717 5715 5714 5712 5711 5709 5707 5704 5702 5699 5697
5708 5708 5707 5706 5706 5706 5704 5702 5699 5696 5695 5692 5687 5686 5685 5681 5679 5680 5676 5672 5673 5672 5664 5661 5666 5671 5675 5679 5682 5686 5693 5700 5703 5706 5711 5715 5719 5722 5725 5726 5729 5731 5732 5733 5733 5734 5734 5734 5734 5734 5734 5735 5735 5735 5735 5735 5735 5734 5733 5732 5731 5730 5728 5727 5726 5724 5722 5720 5719 5718 5718 5718 5717 5715 5714 5712 5710 5709 5708 5706 5704 5702 5699 5697 5694
5702 5701 5700 5700 5700 5699 5699 5698 5695 5692 5690 5688 5685 5682 5680 5678 5677 5676 5674 5671 5670 5670 5669 5672 5675 5676 5678 5681 5683 5686 5691 5696 5700 5704 5708 5711 5714 5718 5720 5722 5724 5725 5726 5727 5727 5727 5727 5727 5727 5728 5729 5729 5729 5729 5730 5730 5730 5729 5728 5727 5726 5725 5724 5723 5721 5719 5717 5716 5715 5715 5714 5714 5713 5712 5710 5708 5707 5706 5705 5703 5701 5699 5697 5694 5692
5695 5695 5695 5694 5694 5694 5693 5693 5691 5689 5686 5685 5684 5681 5679 5678 5677 5677 5676 5676 5675 5673 5672 5673 5675 5677 5679 5681 5683 5686 5690 5694 5698 5702 5705 5707 5711 5713 5714 5716 5718 5719 5719 5720 5721 5721 5721 5721 5722 5722 5723 5723 5724 5724 5724 5724 5724 5724 5723 5722 5721 5721 5720 5718 5717 5715 5713 5712 5711 5711 5711 5710 5709 5708 5706 5705 5704 5703 5702 5700 5698 5696 5694 5692 5690
5688 5688 5689 5688 5688 5688 5688 5687 5686 5685 5684 5682 5682 5681 5679 5677 5677 5677 5677 5676 5676 5675 5674 5674 5675 5678 5680 5681 5683 5687 5690 5693 5696 5698 5701 5704 5706 5708 5709 5710 5711 5712 5713 5714 5714 5715 5715 5715 5716 5717 5717 5718 5718 5718 5719 5719 5719 5718 5717 5717 5717 5716 5715 5714 5713 5711 5710 5708 5708 5707 5707 5706 5705 5704 5702 5701 5700 5700 5699 5697 5695 5693 5691 5689 5687
5682 5682 5682 5683 5683 5683 5683 5682 5681 5680 5680 5679 5679 5678 5678 5676 5675 5674 5675 5674 5674 5674 5674 5675 5677 5678 5680 5682 5684 5686 5688 5691 5693 5694 5696 5699 5701 5702 5703 5704 5705 5705 5706 5707 5707 5708 5709 5709 5710 5711 5712 5712 5713 5713 5714 5715 5714 5713 5712 5712 5712 5712 5711 5710 5708 5707 5705 5705 5704 5704 5703 5702 5701 5699 5698 5697 5697 5696 5695 5694 5692 5690 5688 5686 5685
5676 5676 5676 5677 5677 5677 5677 5677 5677 5676 5675 5675 5674 5675 5675 5674 5673 5673 5672 5672 5672 5671 5672 5673 5675 5677 5679 5681 5682 5683 5684 5686 5687 5689 5691 5693 5694 5695 5696 5697 5698 5699 5699 5700 5701 5702 5703 5704 5705 5706 5706 5707 5707 5708 5709 5709 5709 5708 5707 5707 5707 5707 5706 5705 5704 5703 5702 5701 5700 5699 5699 5698 5696 5695 5694 5694 5693 5693 5692 5691 5689 5687 5685 5684 5682
5669 5671 5671 5672 5672 5672 5672 5672 5672 5672 5671 5670 5670 5670 5670 5670 5670 5670 5670 5670 5670 5669 5670 5670 5671 5673 5675 5677 5677 5677 5678 5680 5681 5683 5684 5686 5687 5688 5689 5690 5691 5692 5693 5694 5695 5696 5697 5698 5699 5701 5701 5702 5702 5703 5704 5704 5703 5703 5702 5702 5703 5702 5701 5700 5699 5698 5697 5697 5696 5695 5694 5693 5692 5691 5690 5690 5690 5689 5689 5687 5686 5684 5682 5681 5679
5663 5664 5666 5666 5666 5667 5667 5668 5668 5668 5668 5665 5664 5664 5665 5666 5666 5666 5666 5666 5666 5666 5666 5666 5667 5668 5670 5672 5673 5673 5673 5674 5675 5676 5678 5679 5680 5681 5682 5683 5684 5685 5687 5688 5689 5690 5692 5693 5694 5695 5696 5697 5697 5698 5699 5699 5698 5698 5698 5698 5698 5697 5696 5695 5695 5694 5693 5693 5692 5691 5690 5689 5687 5687 5686 5686 5686 5686 5685 5684 5682 5681 5679 5678 5676
5658 5659 5660 5661 5662 5662 5662 5663 5663 5664 5663 5661 5660 5660 5661 5662 5662 5662 5661 5661 5661 5661 5661 5661 5662 5663 5665 5667 5668 5668 5668 5669 5670 5671 5672 5673 5674 5674 5675 5677 5678 5679 5681 5683 5684 5685 5687 5688 5689 5690 5691 5691 5692 5692 5693 5693 5693 5693 5693 5692 5692 5692 5691 5691 5690 5690 5689 5688 5687 5686 5685 5684 5683 5682 5682 5682 5682 5682 5682 5680 5679 5677 5676 5674 5673
5654 5654 5655 5656 5657 5658 5658 5658 5658 5658 5658 5657 5657 5658 5659 5659 5658 5658 5658 5657 5658 5658 5657 5657 5658 5659 5661 5662 5663 5664 5664 5665 5666 5666 5666 5667 5668 5669 5670 5672 5673 5675 5677 5678 5680 5681 5682 5683 5684 5684 5685 5685 5686 5687 5687 5687 5687 5687 5687 5687 5687 5687 5686 5686 5686 5685 5685 5684 5683 5681 5680 5679 5679 5678 5678 5678 5679 5679 5678 5677 5675 5674 5672 5671 5670
5649 5650 5650 5651 5652 5653 5653 5653 5653 5653 5653 5653 5653 5654 5655 5655 5655 5655 5655 5654 5655 5656 5656 5655 5654 5655 5656 5657 5658 5659 5659 5660 5661 5661 5662 5662 5663 5664 5666 5668 5669 5671 5673 5674 5675 5676 5677 5677 5678 5678 5679 5679 5680 5681 5681 5681 5681 5682 5682 5682 5681 5681 5681 5681 5681 5681 5680 5679 5678 5677 5676 5675 5674 5674 5674 5675 5675 5675 5674 5673 5671 5670 5669 5668 5667
5644 5645 5645 5646 5646 5647 5648 5648 5648 5648 5649 5649 5649 5649 5650 5651 5651 5652 5652 5651 5652 5653 5653 5652 5651 5651 5652 5653 5653 5654 5655 5656 5656 5657 5658 5659 5660 5661 5663 5664 5665 5667 5668 5669 5670 5670 5671 5671 5672 5672 5673 5673 5674 5675 5676 5676 5676 5676 5677 5677 5676 5676 5676 5675 5675 5675 5675 5674 5673 5672 5671 5671 5670 5670 5671 5671 5671 5671 5670 5669 5667 5666 5665 5664 5663